Precipitable_Water
0.60 0.59 0.59 0.57 0.55 0.53 0.52 0.50 0.48 0.47 0.48 0.48 0.47 0.47 0.47 0.48 0.47 0.46 0.48 0.48 0.49 0.51 0.51 0.50 0.50 0.49 0.49 0.48 0.48 0.47 0.46 0.36 0.28 0.23 0.22 0.20 0.22 0.25 0.26 0.28 0.38 0.39 0.40 0.37 0.30 0.24 0.17 0.17 0.17 0.21 0.20 0.21 0.20 0.19 0.21 0.21 0.22 0.19 0.15 0.13 0.12 0.12 0.11 0.14 0.17 0.18 0.19 0.17 0.18 0.20 0.24 0.26 0.24 0.31 0.38 0.48 0.52 0.51 0.53 0.52 0.63 0.71 0.68 0.75 0.83 0.94 0.99 1.07
0.59 0.59 0.57 0.56 0.54 0.52 0.51 0.49 0.49 0.47 0.47 0.48 0.47 0.47 0.46 0.46 0.46 0.47 0.48 0.48 0.49 0.49 0.49 0.50 0.49 0.49 0.48 0.48 0.48 0.48 0.43 0.33 0.24 0.24 0.20 0.23 0.25 0.25 0.26 0.29 0.40 0.41 0.42 0.33 0.26 0.21 0.16 0.16 0.17 0.19 0.19 0.18 0.21 0.18 0.20 0.18 0.21 0.16 0.15 0.14 0.11 0.13 0.14 0.18 0.21 0.21 0.19 0.19 0.20 0.21 0.22 0.28 0.30 0.35 0.38 0.39 0.45 0.45 0.42 0.49 0.59 0.61 0.69 0.78 0.86 0.94 0.95 1.01
0.56 0.57 0.57 0.54 0.53 0.51 0.51 0.49 0.49 0.48 0.47 0.46 0.45 0.45 0.45 0.45 0.46 0.48 0.48 0.49 0.49 0.49 0.49 0.49 0.49 0.49 0.47 0.48 0.48 0.49 0.39 0.27 0.27 0.19 0.25 0.32 0.30 0.27 0.26 0.31 0.36 0.40 0.38 0.32 0.28 0.24 0.18 0.17 0.18 0.18 0.18 0.17 0.19 0.17 0.18 0.17 0.19 0.18 0.16 0.13 0.12 0.15 0.17 0.22 0.23 0.22 0.22 0.21 0.20 0.21 0.23 0.28 0.37 0.35 0.47 0.37 0.37 0.40 0.37 0.42 0.53 0.53 0.55 0.65 0.80 0.90 0.93 0.94
0.54 0.55 0.55 0.53 0.52 0.51 0.51 0.51 0.49 0.47 0.47 0.45 0.45 0.46 0.45 0.45 0.46 0.47 0.48 0.48 0.48 0.48 0.49 0.48 0.48 0.47 0.47 0.46 0.47 0.45 0.37 0.29 0.19 0.29 0.36 0.41 0.29 0.27 0.27 0.32 0.34 0.40 0.41 0.34 0.29 0.25 0.21 0.20 0.19 0.18 0.17 0.15 0.17 0.18 0.16 0.18 0.16 0.18 0.16 0.13 0.14 0.17 0.17 0.23 0.24 0.24 0.23 0.23 0.21 0.21 0.25 0.29 0.35 0.41 0.43 0.43 0.38 0.40 0.44 0.48 0.40 0.43 0.53 0.64 0.77 0.84 0.89 0.85
0.53 0.53 0.53 0.52 0.52 0.52 0.54 0.53 0.51 0.49 0.47 0.45 0.45 0.45 0.44 0.44 0.45 0.46 0.46 0.47 0.47 0.47 0.47 0.47 0.46 0.46 0.45 0.45 0.45 0.45 0.35 0.20 0.22 0.32 0.36 0.43 0.32 0.27 0.31 0.33 0.40 0.42 0.40 0.31 0.27 0.25 0.23 0.19 0.17 0.17 0.16 0.13 0.15 0.15 0.15 0.18 0.19 0.18 0.16 0.16 0.16 0.18 0.18 0.24 0.24 0.24 0.23 0.23 0.22 0.21 0.24 0.29 0.35 0.42 0.43 0.42 0.33 0.34 0.38 0.43 0.47 0.50 0.57 0.62 0.70 0.79 0.84 0.79
0.51 0.51 0.51 0.54 0.56 0.58 0.58 0.58 0.57 0.54 0.51 0.48 0.46 0.46 0.45 0.44 0.44 0.45 0.45 0.45 0.45 0.46 0.45 0.44 0.44 0.42 0.43 0.43 0.45 0.45 0.30 0.14 0.31 0.38 0.50 0.43 0.35 0.32 0.35 0.40 0.44 0.40 0.34 0.28 0.24 0.22 0.19 0.18 0.17 0.15 0.14 0.14 0.14 0.12 0.14 0.16 0.19 0.14 0.16 0.16 0.17 0.19 0.20 0.24 0.24 0.24 0.23 0.22 0.21 0.21 0.26 0.29 0.31 0.36 0.42 0.38 0.33 0.39 0.42 0.49 0.49 0.56 0.57 0.62 0.68 0.73 0.74 0.72
0.52 0.55 0.58 0.60 0.61 0.60 0.60 0.59 0.58 0.57 0.55 0.52 0.50 0.48 0.47 0.45 0.44 0.45 0.44 0.44 0.44 0.44 0.43 0.43 0.42 0.42 0.42 0.45 0.48 0.46 0.30 0.28 0.37 0.43 0.51 0.44 0.40 0.37 0.41 0.43 0.42 0.36 0.33 0.27 0.23 0.19 0.18 0.18 0.17 0.17 0.16 0.14 0.15 0.14 0.16 0.16 0.18 0.16 0.14 0.16 0.17 0.20 0.22 0.24 0.23 0.24 0.24 0.23 0.22 0.22 0.25 0.26 0.29 0.29 0.37 0.33 0.37 0.37 0.41 0.48 0.57 0.65 0.71 0.72 0.66 0.66 0.64 0.65
0.58 0.60 0.61 0.61 0.60 0.60 0.59 0.59 0.58 0.57 0.56 0.54 0.52 0.50 0.48 0.46 0.45 0.44 0.44 0.43 0.43 0.43 0.43 0.42 0.42 0.43 0.44 0.41 0.39 0.31 0.29 0.25 0.35 0.47 0.53 0.43 0.44 0.40 0.41 0.39 0.35 0.35 0.30 0.25 0.20 0.17 0.19 0.18 0.17 0.21 0.17 0.14 0.17 0.15 0.17 0.17 0.17 0.15 0.15 0.17 0.19 0.21 0.23 0.23 0.23 0.24 0.23 0.23 0.24 0.23 0.22 0.24 0.24 0.26 0.32 0.32 0.36 0.34 0.39 0.49 0.58 0.64 0.68 0.71 0.65 0.64 0.69 0.67
0.61 0.62 0.62 0.62 0.61 0.61 0.60 0.59 0.60 0.59 0.58 0.56 0.54 0.52 0.49 0.48 0.46 0.44 0.43 0.43 0.43 0.43 0.42 0.43 0.42 0.42 0.50 0.47 0.34 0.25 0.22 0.35 0.39 0.43 0.43 0.34 0.30 0.30 0.31 0.29 0.32 0.30 0.25 0.21 0.19 0.20 0.21 0.20 0.23 0.23 0.18 0.17 0.20 0.17 0.19 0.16 0.15 0.17 0.18 0.19 0.20 0.21 0.23 0.23 0.23 0.24 0.24 0.24 0.24 0.22 0.22 0.23 0.24 0.27 0.27 0.31 0.34 0.37 0.41 0.46 0.56 0.60 0.62 0.63 0.63 0.65 0.66 0.64
0.62 0.63 0.63 0.62 0.62 0.61 0.61 0.61 0.61 0.61 0.60 0.58 0.56 0.52 0.51 0.48 0.45 0.44 0.44 0.43 0.44 0.44 0.42 0.43 0.43 0.43 0.44 0.38 0.31 0.20 0.27 0.40 0.37 0.35 0.32 0.25 0.24 0.24 0.24 0.23 0.21 0.20 0.16 0.16 0.20 0.23 0.25 0.24 0.25 0.26 0.25 0.21 0.22 0.19 0.20 0.17 0.17 0.20 0.20 0.19 0.19 0.21 0.22 0.23 0.22 0.23 0.24 0.24 0.24 0.22 0.22 0.22 0.24 0.24 0.22 0.29 0.34 0.37 0.40 0.44 0.53 0.55 0.56 0.61 0.63 0.67 0.70 0.63
0.62 0.63 0.64 0.63 0.62 0.62 0.62 0.61 0.62 0.62 0.62 0.61 0.60 0.56 0.51 0.49 0.46 0.44 0.43 0.43 0.42 0.43 0.43 0.42 0.43 0.42 0.34 0.36 0.27 0.21 0.39 0.36 0.38 0.33 0.28 0.24 0.22 0.21 0.19 0.19 0.18 0.16 0.17 0.20 0.25 0.29 0.29 0.29 0.29 0.28 0.25 0.20 0.22 0.20 0.20 0.20 0.22 0.21 0.21 0.20 0.19 0.20 0.22 0.22 0.23 0.23 0.24 0.23 0.24 0.23 0.22 0.22 0.23 0.22 0.21 0.27 0.34 0.38 0.36 0.41 0.49 0.53 0.56 0.59 0.64 0.65 0.66 0.62
0.61 0.63 0.64 0.63 0.62 0.62 0.62 0.62 0.63 0.63 0.64 0.65 0.64 0.61 0.56 0.50 0.48 0.46 0.44 0.43 0.43 0.42 0.42 0.43 0.43 0.42 0.40 0.34 0.30 0.31 0.43 0.36 0.39 0.35 0.29 0.27 0.27 0.27 0.28 0.27 0.26 0.26 0.26 0.26 0.27 0.28 0.31 0.30 0.30 0.27 0.20 0.26 0.19 0.22 0.20 0.23 0.23 0.22 0.21 0.17 0.17 0.19 0.20 0.22 0.22 0.23 0.23 0.22 0.24 0.23 0.20 0.19 0.20 0.19 0.24 0.30 0.36 0.38 0.37 0.39 0.46 0.51 0.56 0.60 0.63 0.63 0.61 0.58
0.59 0.61 0.61 0.61 0.61 0.61 0.61 0.62 0.63 0.63 0.64 0.66 0.67 0.67 0.62 0.55 0.49 0.48 0.46 0.43 0.43 0.43 0.43 0.41 0.43 0.45 0.38 0.29 0.32 0.39 0.41 0.40 0.37 0.36 0.34 0.31 0.32 0.33 0.32 0.32 0.30 0.30 0.30 0.28 0.27 0.30 0.31 0.31 0.30 0.25 0.27 0.25 0.22 0.19 0.23 0.25 0.23 0.22 0.20 0.18 0.17 0.17 0.18 0.21 0.23 0.23 0.22 0.23 0.24 0.22 0.15 0.17 0.19 0.20 0.25 0.33 0.35 0.37 0.37 0.39 0.43 0.49 0.53 0.58 0.60 0.60 0.60 0.57
0.56 0.58 0.59 0.59 0.59 0.60 0.59 0.60 0.61 0.62 0.64 0.64 0.64 0.65 0.68 0.63 0.56 0.48 0.47 0.43 0.44 0.45 0.44 0.44 0.45 0.44 0.37 0.26 0.35 0.41 0.43 0.43 0.39 0.35 0.32 0.33 0.30 0.29 0.33 0.34 0.34 0.33 0.34 0.30 0.30 0.33 0.32 0.32 0.31 0.29 0.30 0.25 0.22 0.27 0.23 0.22 0.22 0.18 0.19 0.18 0.16 0.15 0.15 0.20 0.21 0.22 0.21 0.24 0.23 0.22 0.16 0.17 0.20 0.21 0.27 0.31 0.35 0.32 0.31 0.36 0.41 0.45 0.50 0.56 0.60 0.58 0.55 0.51
0.50 0.53 0.56 0.56 0.57 0.57 0.58 0.58 0.57 0.59 0.62 0.63 0.62 0.62 0.64 0.68 0.59 0.50 0.47 0.47 0.46 0.45 0.43 0.47 0.48 0.39 0.30 0.29 0.39 0.46 0.53 0.50 0.39 0.35 0.35 0.31 0.29 0.27 0.28 0.31 0.31 0.32 0.32 0.32 0.31 0.34 0.34 0.32 0.30 0.25 0.23 0.27 0.27 0.23 0.20 0.20 0.20 0.19 0.15 0.14 0.16 0.15 0.17 0.19 0.22 0.22 0.20 0.23 0.24 0.21 0.16 0.17 0.19 0.21 0.25 0.30 0.32 0.32 0.29 0.33 0.36 0.40 0.45 0.52 0.55 0.54 0.51 0.48
0.44 0.48 0.51 0.53 0.54 0.54 0.54 0.55 0.55 0.55 0.59 0.61 0.60 0.60 0.63 0.71 0.61 0.54 0.50 0.48 0.46 0.45 0.44 0.34 0.38 0.36 0.29 0.24 0.36 0.51 0.45 0.35 0.33 0.39 0.39 0.35 0.31 0.26 0.28 0.29 0.30 0.31 0.32 0.30 0.33 0.33 0.33 0.31 0.26 0.25 0.24 0.25 0.21 0.19 0.19 0.17 0.17 0.19 0.17 0.15 0.14 0.16 0.17 0.18 0.22 0.24 0.25 0.22 0.22 0.20 0.16 0.18 0.17 0.20 0.24 0.28 0.30 0.30 0.27 0.30 0.32 0.35 0.40 0.47 0.51 0.51 0.49 0.47
0.41 0.42 0.45 0.47 0.48 0.50 0.50 0.51 0.51 0.52 0.55 0.57 0.57 0.58 0.64 0.70 0.65 0.58 0.54 0.51 0.45 0.48 0.42 0.28 0.37 0.39 0.22 0.34 0.43 0.35 0.33 0.38 0.42 0.38 0.38 0.35 0.33 0.30 0.27 0.27 0.26 0.26 0.29 0.30 0.30 0.30 0.30 0.26 0.29 0.24 0.25 0.21 0.20 0.19 0.15 0.15 0.15 0.16 0.22 0.18 0.19 0.17 0.18 0.16 0.23 0.26 0.27 0.24 0.20 0.20 0.17 0.17 0.18 0.19 0.22 0.27 0.29 0.29 0.27 0.29 0.33 0.35 0.37 0.43 0.49 0.49 0.47 0.44
0.38 0.39 0.40 0.42 0.43 0.45 0.47 0.48 0.49 0.51 0.53 0.54 0.54 0.60 0.62 0.66 0.69 0.61 0.55 0.51 0.48 0.45 0.43 0.46 0.41 0.29 0.23 0.30 0.27 0.29 0.39 0.37 0.37 0.37 0.38 0.38 0.36 0.32 0.28 0.25 0.26 0.25 0.25 0.24 0.27 0.24 0.27 0.23 0.25 0.18 0.18 0.18 0.18 0.17 0.13 0.12 0.14 0.15 0.17 0.18 0.18 0.21 0.21 0.20 0.19 0.24 0.26 0.25 0.21 0.20 0.17 0.16 0.17 0.19 0.20 0.24 0.27 0.28 0.28 0.30 0.33 0.35 0.38 0.41 0.45 0.46 0.45 0.43
0.37 0.36 0.38 0.40 0.41 0.42 0.43 0.44 0.47 0.51 0.53 0.54 0.56 0.66 0.68 0.63 0.62 0.61 0.47 0.46 0.34 0.27 0.19 0.23 0.24 0.19 0.17 0.28 0.37 0.39 0.38 0.40 0.38 0.35 0.30 0.31 0.33 0.32 0.30 0.29 0.26 0.23 0.20 0.19 0.21 0.21 0.24 0.21 0.21 0.17 0.14 0.15 0.15 0.16 0.15 0.16 0.18 0.18 0.19 0.18 0.19 0.18 0.19 0.19 0.22 0.26 0.26 0.22 0.20 0.18 0.16 0.17 0.18 0.19 0.20 0.22 0.25 0.27 0.28 0.32 0.35 0.38 0.38 0.40 0.43 0.46 0.44 0.42
0.36 0.36 0.37 0.38 0.40 0.40 0.41 0.42 0.46 0.52 0.54 0.48 0.49 0.54 0.53 0.36 0.34 0.35 0.47 0.42 0.31 0.28 0.28 0.29 0.31 0.34 0.35 0.35 0.35 0.41 0.47 0.40 0.31 0.31 0.33 0.35 0.30 0.28 0.26 0.26 0.24 0.23 0.19 0.17 0.19 0.21 0.24 0.16 0.15 0.14 0.16 0.17 0.18 0.19 0.19 0.21 0.20 0.22 0.22 0.20 0.19 0.19 0.20 0.23 0.24 0.27 0.28 0.21 0.19 0.21 0.19 0.17 0.18 0.20 0.21 0.22 0.24 0.24 0.25 0.28 0.32 0.36 0.38 0.39 0.41 0.44 0.45 0.44
0.36 0.36 0.37 0.37 0.38 0.39 0.39 0.42 0.48 0.51 0.53 0.48 0.45 0.42 0.26 0.29 0.21 0.20 0.29 0.30 0.36 0.35 0.31 0.33 0.34 0.34 0.33 0.38 0.40 0.39 0.34 0.34 0.36 0.31 0.30 0.36 0.31 0.26 0.22 0.22 0.19 0.16 0.18 0.20 0.18 0.26 0.23 0.15 0.14 0.18 0.20 0.20 0.20 0.24 0.26 0.25 0.24 0.22 0.21 0.21 0.20 0.20 0.18 0.23 0.24 0.27 0.30 0.21 0.20 0.23 0.20 0.18 0.19 0.21 0.22 0.25 0.23 0.22 0.23 0.24 0.27 0.31 0.38 0.41 0.42 0.44 0.46 0.47
0.36 0.36 0.36 0.37 0.37 0.39 0.43 0.47 0.49 0.52 0.54 0.49 0.44 0.34 0.37 0.42 0.45 0.47 0.38 0.24 0.30 0.36 0.38 0.36 0.40 0.35 0.40 0.40 0.42 0.43 0.41 0.32 0.32 0.33 0.36 0.32 0.29 0.22 0.22 0.20 0.18 0.15 0.19 0.19 0.19 0.17 0.16 0.13 0.18 0.22 0.23 0.24 0.24 0.24 0.25 0.24 0.23 0.24 0.21 0.21 0.20 0.20 0.22 0.24 0.25 0.28 0.29 0.25 0.22 0.24 0.21 0.21 0.22 0.23 0.24 0.24 0.23 0.25 0.25 0.25 0.26 0.26 0.29 0.35 0.40 0.43 0.46 0.46
0.37 0.35 0.36 0.37 0.39 0.43 0.47 0.50 0.52 0.54 0.50 0.43 0.39 0.42 0.41 0.49 0.53 0.55 0.47 0.35 0.31 0.38 0.35 0.34 0.30 0.32 0.32 0.39 0.41 0.44 0.30 0.28 0.27 0.32 0.32 0.32 0.28 0.26 0.23 0.20 0.18 0.18 0.18 0.18 0.15 0.15 0.12 0.17 0.24 0.26 0.26 0.24 0.24 0.26 0.25 0.24 0.24 0.22 0.22 0.20 0.18 0.21 0.20 0.18 0.24 0.27 0.28 0.25 0.23 0.24 0.22 0.23 0.26 0.27 0.26 0.27 0.27 0.27 0.29 0.29 0.28 0.29 0.29 0.30 0.34 0.39 0.42 0.42
0.36 0.35 0.36 0.39 0.41 0.44 0.49 0.50 0.53 0.52 0.46 0.44 0.43 0.42 0.51 0.58 0.57 0.54 0.44 0.31 0.27 0.32 0.34 0.34 0.32 0.32 0.32 0.32 0.43 0.38 0.29 0.31 0.28 0.27 0.36 0.31 0.26 0.28 0.24 0.22 0.20 0.19 0.18 0.19 0.18 0.16 0.16 0.21 0.26 0.27 0.27 0.24 0.22 0.24 0.23 0.22 0.20 0.23 0.22 0.20 0.20 0.22 0.25 0.23 0.23 0.26 0.28 0.28 0.28 0.25 0.22 0.21 0.24 0.23 0.25 0.28 0.30 0.29 0.29 0.28 0.29 0.31 0.32 0.33 0.35 0.37 0.40 0.40
0.36 0.35 0.37 0.41 0.41 0.45 0.47 0.50 0.43 0.41 0.46 0.46 0.43 0.51 0.56 0.60 0.64 0.58 0.41 0.38 0.36 0.32 0.46 0.38 0.40 0.38 0.42 0.50 0.49 0.36 0.38 0.35 0.33 0.34 0.35 0.30 0.27 0.25 0.22 0.24 0.20 0.18 0.19 0.21 0.20 0.18 0.20 0.24 0.27 0.25 0.25 0.25 0.23 0.22 0.23 0.23 0.20 0.22 0.26 0.26 0.27 0.28 0.26 0.26 0.27 0.23 0.21 0.20 0.25 0.24 0.18 0.17 0.21 0.23 0.24 0.27 0.29 0.28 0.30 0.30 0.30 0.32 0.33 0.34 0.34 0.35 0.39 0.42
0.35 0.35 0.36 0.40 0.42 0.44 0.49 0.36 0.35 0.43 0.41 0.35 0.40 0.48 0.54 0.57 0.64 0.63 0.46 0.32 0.19 0.29 0.36 0.29 0.43 0.33 0.47 0.37 0.42 0.39 0.36 0.27 0.33 0.36 0.35 0.34 0.33 0.27 0.25 0.21 0.21 0.18 0.19 0.20 0.19 0.19 0.20 0.26 0.27 0.24 0.24 0.24 0.25 0.24 0.27 0.27 0.24 0.23 0.26 0.31 0.30 0.29 0.27 0.26 0.24 0.23 0.18 0.16 0.23 0.27 0.18 0.16 0.22 0.22 0.24 0.26 0.27 0.27 0.30 0.30 0.31 0.33 0.35 0.36 0.35 0.35 0.37 0.39
0.34 0.34 0.35 0.36 0.40 0.47 0.34 0.27 0.36 0.38 0.30 0.33 0.41 0.50 0.57 0.58 0.62 0.61 0.44 0.24 0.19 0.33 0.33 0.40 0.37 0.33 0.38 0.35 0.36 0.35 0.20 0.22 0.31 0.34 0.33 0.34 0.28 0.30 0.21 0.19 0.20 0.20 0.20 0.21 0.17 0.16 0.22 0.23 0.24 0.27 0.25 0.25 0.25 0.23 0.28 0.28 0.26 0.24 0.32 0.33 0.32 0.29 0.26 0.25 0.24 0.23 0.21 0.25 0.26 0.25 0.22 0.17 0.17 0.21 0.26 0.28 0.27 0.27 0.28 0.29 0.30 0.30 0.31 0.32 0.34 0.35 0.36 0.38
0.34 0.33 0.34 0.34 0.34 0.41 0.33 0.40 0.32 0.27 0.30 0.36 0.49 0.54 0.58 0.63 0.65 0.61 0.39 0.16 0.16 0.39 0.31 0.35 0.38 0.40 0.37 0.35 0.36 0.29 0.27 0.30 0.24 0.28 0.33 0.34 0.31 0.27 0.24 0.21 0.20 0.20 0.22 0.20 0.12 0.16 0.19 0.19 0.21 0.21 0.23 0.24 0.24 0.28 0.32 0.32 0.28 0.29 0.34 0.34 0.30 0.28 0.27 0.26 0.25 0.23 0.24 0.21 0.18 0.21 0.25 0.18 0.17 0.20 0.25 0.26 0.22 0.23 0.24 0.26 0.27 0.29 0.30 0.31 0.32 0.33 0.34 0.36
0.33 0.33 0.34 0.34 0.36 0.40 0.43 0.34 0.32 0.29 0.39 0.45 0.48 0.54 0.64 0.71 0.67 0.49 0.29 0.14 0.29 0.30 0.41 0.30 0.42 0.37 0.34 0.35 0.31 0.31 0.30 0.30 0.24 0.29 0.32 0.33 0.32 0.27 0.23 0.23 0.23 0.22 0.23 0.20 0.16 0.18 0.19 0.18 0.21 0.23 0.22 0.22 0.29 0.32 0.35 0.34 0.29 0.34 0.36 0.35 0.32 0.30 0.28 0.26 0.23 0.22 0.22 0.18 0.15 0.18 0.22 0.16 0.16 0.20 0.20 0.22 0.21 0.22 0.24 0.26 0.27 0.29 0.30 0.29 0.28 0.28 0.30 0.32
0.33 0.32 0.34 0.34 0.34 0.37 0.37 0.42 0.34 0.44 0.49 0.44 0.43 0.53 0.67 0.59 0.52 0.30 0.21 0.12 0.31 0.23 0.29 0.35 0.30 0.28 0.30 0.25 0.25 0.27 0.25 0.27 0.27 0.27 0.29 0.26 0.28 0.29 0.27 0.28 0.24 0.22 0.20 0.22 0.20 0.19 0.19 0.21 0.25 0.23 0.21 0.24 0.29 0.33 0.36 0.36 0.35 0.36 0.32 0.27 0.25 0.24 0.23 0.23 0.22 0.21 0.18 0.14 0.14 0.18 0.20 0.18 0.14 0.18 0.19 0.18 0.19 0.23 0.24 0.25 0.27 0.29 0.29 0.29 0.28 0.29 0.29 0.30
0.33 0.33 0.33 0.36 0.23 0.31 0.32 0.23 0.29 0.37 0.38 0.40 0.45 0.56 0.57 0.51 0.33 0.21 0.13 0.19 0.30 0.26 0.29 0.26 0.23 0.24 0.21 0.21 0.18 0.23 0.22 0.23 0.23 0.23 0.22 0.25 0.24 0.25 0.24 0.22 0.26 0.21 0.20 0.20 0.18 0.19 0.19 0.20 0.19 0.21 0.26 0.26 0.28 0.27 0.33 0.36 0.36 0.33 0.28 0.25 0.23 0.21 0.22 0.20 0.19 0.20 0.14 0.12 0.17 0.19 0.19 0.18 0.11 0.14 0.19 0.22 0.25 0.27 0.26 0.24 0.25 0.26 0.28 0.30 0.30 0.30 0.30 0.32
0.36 0.36 0.36 0.35 0.34 0.40 0.22 0.20 0.30 0.42 0.40 0.43 0.42 0.45 0.46 0.26 0.30 0.16 0.16 0.34 0.19 0.22 0.21 0.22 0.22 0.19 0.17 0.19 0.18 0.18 0.17 0.20 0.21 0.20 0.19 0.20 0.19 0.19 0.20 0.17 0.19 0.15 0.15 0.16 0.15 0.19 0.17 0.18 0.19 0.20 0.27 0.25 0.25 0.24 0.26 0.31 0.32 0.29 0.27 0.24 0.18 0.17 0.17 0.14 0.17 0.14 0.14 0.14 0.18 0.20 0.20 0.16 0.13 0.15 0.21 0.25 0.26 0.29 0.29 0.29 0.28 0.29 0.30 0.31 0.31 0.31 0.31 0.33
0.40 0.42 0.43 0.43 0.47 0.41 0.39 0.39 0.41 0.42 0.44 0.42 0.31 0.38 0.23 0.19 0.13 0.20 0.20 0.21 0.17 0.25 0.22 0.24 0.21 0.19 0.18 0.17 0.16 0.17 0.19 0.14 0.20 0.18 0.19 0.19 0.17 0.19 0.21 0.20 0.21 0.19 0.13 0.18 0.16 0.16 0.16 0.19 0.19 0.19 0.20 0.25 0.24 0.19 0.20 0.21 0.26 0.26 0.23 0.21 0.18 0.15 0.14 0.12 0.14 0.16 0.16 0.18 0.21 0.20 0.24 0.15 0.17 0.19 0.26 0.26 0.29 0.32 0.32 0.32 0.32 0.31 0.32 0.32 0.33 0.33 0.33 0.34
0.43 0.48 0.44 0.51 0.53 0.51 0.50 0.49 0.45 0.46 0.44 0.38 0.23 0.19 0.16 0.13 0.14 0.30 0.22 0.21 0.20 0.26 0.25 0.23 0.22 0.20 0.19 0.15 0.16 0.18 0.14 0.17 0.17 0.17 0.18 0.16 0.16 0.15 0.18 0.21 0.21 0.19 0.19 0.19 0.15 0.16 0.13 0.13 0.17 0.18 0.16 0.22 0.22 0.21 0.21 0.21 0.22 0.24 0.26 0.22 0.19 0.17 0.14 0.12 0.14 0.13 0.14 0.16 0.19 0.25 0.19 0.16 0.15 0.18 0.28 0.30 0.32 0.33 0.33 0.33 0.33 0.33 0.33 0.35 0.37 0.36 0.36 0.36
0.45 0.49 0.49 0.54 0.57 0.53 0.52 0.50 0.46 0.47 0.43 0.32 0.18 0.11 0.08 0.11 0.19 0.19 0.18 0.20 0.22 0.23 0.22 0.25 0.20 0.19 0.18 0.18 0.19 0.18 0.17 0.15 0.18 0.17 0.17 0.15 0.14 0.15 0.15 0.18 0.20 0.20 0.20 0.14 0.17 0.17 0.16 0.16 0.19 0.23 0.24 0.25 0.23 0.26 0.27 0.25 0.23 0.25 0.25 0.25 0.20 0.18 0.20 0.15 0.17 0.16 0.16 0.16 0.15 0.19 0.17 0.22 0.21 0.29 0.32 0.31 0.31 0.32 0.33 0.32 0.32 0.32 0.33 0.34 0.35 0.36 0.38 0.39
0.43 0.46 0.49 0.47 0.53 0.53 0.55 0.52 0.48 0.42 0.33 0.22 0.12 0.09 0.08 0.16 0.17 0.22 0.19 0.23 0.23 0.20 0.21 0.23 0.21 0.18 0.17 0.16 0.19 0.18 0.20 0.15 0.16 0.15 0.15 0.16 0.18 0.17 0.21 0.22 0.22 0.23 0.19 0.15 0.18 0.14 0.16 0.14 0.20 0.23 0.25 0.23 0.24 0.26 0.25 0.25 0.17 0.22 0.23 0.20 0.21 0.25 0.22 0.19 0.19 0.20 0.18 0.16 0.13 0.19 0.18 0.21 0.27 0.28 0.30 0.30 0.29 0.29 0.31 0.31 0.31 0.31 0.31 0.32 0.32 0.34 0.37 0.40
0.34 0.42 0.41 0.47 0.51 0.53 0.54 0.51 0.47 0.36 0.30 0.20 0.10 0.09 0.18 0.21 0.24 0.23 0.22 0.20 0.22 0.22 0.19 0.15 0.18 0.17 0.16 0.16 0.16 0.17 0.17 0.17 0.16 0.12 0.11 0.18 0.17 0.20 0.20 0.23 0.27 0.26 0.27 0.22 0.18 0.21 0.15 0.16 0.22 0.20 0.20 0.25 0.27 0.27 0.25 0.25 0.25 0.22 0.18 0.21 0.27 0.29 0.25 0.19 0.14 0.17 0.15 0.12 0.13 0.17 0.15 0.17 0.18 0.17 0.28 0.27 0.26 0.27 0.28 0.28 0.29 0.30 0.31 0.30 0.32 0.34 0.36 0.38
0.33 0.36 0.44 0.46 0.46 0.47 0.50 0.49 0.43 0.33 0.27 0.20 0.12 0.15 0.30 0.18 0.23 0.21 0.23 0.23 0.22 0.21 0.17 0.15 0.16 0.18 0.15 0.15 0.16 0.18 0.19 0.15 0.15 0.14 0.10 0.15 0.14 0.27 0.24 0.23 0.28 0.27 0.28 0.29 0.21 0.20 0.21 0.15 0.18 0.21 0.22 0.24 0.27 0.26 0.24 0.27 0.28 0.23 0.22 0.29 0.20 0.19 0.17 0.22 0.18 0.13 0.13 0.12 0.13 0.15 0.17 0.18 0.19 0.19 0.24 0.24 0.24 0.25 0.26 0.27 0.27 0.27 0.28 0.28 0.30 0.33 0.35 0.38
0.30 0.30 0.31 0.35 0.42 0.41 0.45 0.48 0.41 0.31 0.24 0.17 0.18 0.15 0.25 0.28 0.23 0.21 0.22 0.23 0.23 0.20 0.17 0.17 0.15 0.17 0.17 0.16 0.17 0.18 0.18 0.13 0.15 0.13 0.10 0.13 0.11 0.20 0.22 0.24 0.24 0.28 0.30 0.29 0.25 0.26 0.26 0.17 0.18 0.24 0.23 0.25 0.25 0.23 0.18 0.22 0.28 0.29 0.29 0.26 0.28 0.23 0.21 0.19 0.20 0.20 0.18 0.14 0.14 0.14 0.17 0.15 0.21 0.21 0.24 0.23 0.25 0.26 0.26 0.27 0.27 0.26 0.27 0.28 0.30 0.32 0.34 0.35
0.24 0.20 0.25 0.36 0.42 0.42 0.47 0.41 0.31 0.26 0.18 0.14 0.19 0.19 0.25 0.23 0.22 0.21 0.23 0.23 0.21 0.20 0.18 0.18 0.18 0.16 0.17 0.16 0.16 0.14 0.16 0.14 0.12 0.12 0.11 0.12 0.11 0.20 0.19 0.25 0.22 0.24 0.27 0.30 0.27 0.32 0.24 0.26 0.17 0.23 0.28 0.27 0.20 0.24 0.21 0.23 0.22 0.23 0.23 0.22 0.23 0.23 0.26 0.23 0.24 0.20 0.18 0.16 0.15 0.14 0.13 0.16 0.21 0.26 0.24 0.23 0.24 0.25 0.27 0.27 0.28 0.28 0.28 0.29 0.31 0.32 0.33 0.35
0.30 0.21 0.27 0.38 0.39 0.41 0.39 0.30 0.24 0.22 0.18 0.24 0.26 0.22 0.22 0.21 0.22 0.22 0.23 0.24 0.23 0.26 0.22 0.19 0.19 0.16 0.17 0.15 0.15 0.16 0.13 0.13 0.12 0.10 0.11 0.12 0.12 0.10 0.21 0.20 0.22 0.20 0.24 0.23 0.24 0.27 0.24 0.24 0.19 0.22 0.22 0.23 0.24 0.28 0.28 0.27 0.27 0.25 0.24 0.22 0.23 0.21 0.20 0.17 0.17 0.23 0.21 0.18 0.16 0.15 0.14 0.19 0.25 0.29 0.27 0.25 0.26 0.26 0.27 0.27 0.27 0.28 0.30 0.32 0.33 0.34 0.35 0.35
0.18 0.12 0.21 0.39 0.40 0.37 0.28 0.18 0.19 0.24 0.20 0.17 0.18 0.21 0.19 0.24 0.22 0.23 0.23 0.24 0.22 0.21 0.24 0.20 0.20 0.18 0.17 0.16 0.15 0.14 0.13 0.12 0.12 0.11 0.12 0.11 0.14 0.14 0.21 0.25 0.22 0.22 0.17 0.15 0.19 0.28 0.27 0.25 0.22 0.21 0.23 0.24 0.27 0.32 0.34 0.33 0.31 0.29 0.27 0.25 0.27 0.27 0.26 0.21 0.17 0.19 0.24 0.24 0.24 0.22 0.18 0.19 0.29 0.31 0.30 0.29 0.28 0.29 0.29 0.28 0.28 0.30 0.32 0.33 0.34 0.36 0.37 0.37
0.17 0.14 0.27 0.38 0.40 0.33 0.24 0.17 0.19 0.18 0.16 0.19 0.24 0.23 0.23 0.21 0.20 0.22 0.21 0.22 0.19 0.22 0.19 0.18 0.17 0.16 0.17 0.16 0.15 0.13 0.13 0.12 0.12 0.12 0.13 0.14 0.17 0.21 0.24 0.25 0.26 0.23 0.20 0.20 0.21 0.27 0.30 0.20 0.18 0.20 0.24 0.28 0.31 0.32 0.33 0.32 0.30 0.28 0.27 0.28 0.26 0.24 0.25 0.24 0.23 0.23 0.21 0.23 0.21 0.20 0.17 0.20 0.29 0.33 0.32 0.31 0.30 0.31 0.31 0.31 0.30 0.31 0.33 0.34 0.34 0.35 0.35 0.35
0.19 0.19 0.23 0.35 0.36 0.31 0.21 0.14 0.14 0.15 0.17 0.21 0.20 0.20 0.24 0.21 0.20 0.20 0.19 0.19 0.18 0.17 0.16 0.16 0.17 0.17 0.15 0.17 0.15 0.12 0.14 0.10 0.14 0.13 0.13 0.16 0.16 0.25 0.25 0.25 0.27 0.24 0.23 0.26 0.18 0.27 0.16 0.20 0.17 0.15 0.15 0.18 0.22 0.25 0.27 0.30 0.29 0.27 0.26 0.27 0.27 0.27 0.26 0.26 0.25 0.25 0.19 0.19 0.19 0.17 0.13 0.18 0.27 0.31 0.32 0.32 0.32 0.31 0.31 0.32 0.32 0.30 0.33 0.34 0.35 0.36 0.37 0.37
0.20 0.24 0.26 0.25 0.31 0.30 0.20 0.22 0.19 0.17 0.18 0.17 0.18 0.17 0.19 0.20 0.21 0.21 0.20 0.17 0.19 0.18 0.16 0.15 0.16 0.17 0.16 0.17 0.15 0.16 0.17 0.15 0.13 0.19 0.18 0.19 0.19 0.27 0.26 0.27 0.30 0.26 0.33 0.35 0.30 0.29 0.19 0.19 0.18 0.13 0.11 0.10 0.10 0.11 0.14 0.18 0.23 0.26 0.27 0.26 0.26 0.25 0.24 0.23 0.19 0.20 0.17 0.19 0.20 0.17 0.15 0.21 0.27 0.28 0.28 0.28 0.28 0.29 0.30 0.32 0.34 0.35 0.35 0.34 0.35 0.36 0.37 0.37
0.17 0.10 0.18 0.20 0.24 0.26 0.27 0.30 0.24 0.20 0.18 0.17 0.16 0.18 0.19 0.17 0.21 0.23 0.21 0.18 0.19 0.19 0.18 0.18 0.19 0.19 0.18 0.17 0.16 0.17 0.17 0.21 0.17 0.17 0.19 0.19 0.21 0.25 0.26 0.28 0.29 0.29 0.31 0.32 0.33 0.31 0.22 0.23 0.20 0.18 0.16 0.14 0.16 0.18 0.21 0.22 0.21 0.19 0.21 0.23 0.24 0.25 0.26 0.24 0.23 0.20 0.17 0.19 0.18 0.18 0.19 0.20 0.22 0.23 0.25 0.25 0.26 0.26 0.28 0.30 0.30 0.31 0.36 0.38 0.38 0.37 0.37 0.37
0.24 0.14 0.17 0.13 0.19 0.21 0.20 0.23 0.21 0.21 0.16 0.22 0.15 0.20 0.17 0.17 0.19 0.19 0.23 0.16 0.20 0.19 0.19 0.19 0.19 0.17 0.18 0.18 0.18 0.18 0.20 0.19 0.23 0.21 0.21 0.21 0.23 0.25 0.28 0.28 0.29 0.31 0.33 0.31 0.33 0.29 0.25 0.21 0.23 0.22 0.21 0.21 0.23 0.22 0.23 0.23 0.19 0.20 0.19 0.19 0.20 0.21 0.21 0.20 0.18 0.17 0.20 0.18 0.14 0.17 0.19 0.16 0.17 0.22 0.24 0.24 0.25 0.26 0.27 0.28 0.29 0.31 0.32 0.33 0.35 0.37 0.37 0.36
0.14 0.21 0.24 0.27 0.15 0.14 0.16 0.17 0.22 0.20 0.22 0.21 0.17 0.21 0.16 0.15 0.15 0.13 0.19 0.20 0.21 0.21 0.17 0.20 0.20 0.20 0.20 0.19 0.19 0.16 0.19 0.19 0.20 0.19 0.23 0.24 0.23 0.25 0.24 0.28 0.27 0.30 0.30 0.30 0.33 0.29 0.25 0.21 0.24 0.24 0.23 0.25 0.26 0.26 0.26 0.24 0.23 0.22 0.21 0.20 0.19 0.20 0.20 0.18 0.18 0.19 0.19 0.16 0.13 0.15 0.17 0.16 0.17 0.20 0.22 0.24 0.25 0.27 0.28 0.30 0.32 0.34 0.35 0.35 0.34 0.33 0.32 0.32
0.25 0.26 0.26 0.31 0.19 0.22 0.20 0.22 0.23 0.20 0.19 0.22 0.19 0.19 0.15 0.15 0.14 0.16 0.16 0.17 0.18 0.19 0.20 0.16 0.18 0.20 0.21 0.22 0.20 0.18 0.20 0.17 0.18 0.23 0.22 0.22 0.23 0.24 0.23 0.25 0.31 0.30 0.28 0.26 0.27 0.30 0.26 0.23 0.26 0.26 0.24 0.25 0.26 0.27 0.27 0.25 0.25 0.24 0.23 0.23 0.23 0.23 0.22 0.21 0.21 0.21 0.20 0.18 0.18 0.18 0.18 0.18 0.19 0.21 0.22 0.24 0.27 0.28 0.31 0.33 0.33 0.32 0.31 0.32 0.31 0.31 0.31 0.31
0.20 0.20 0.19 0.27 0.25 0.23 0.23 0.21 0.20 0.19 0.16 0.21 0.16 0.18 0.17 0.16 0.16 0.18 0.20 0.19 0.16 0.19 0.23 0.19 0.20 0.21 0.22 0.23 0.22 0.20 0.22 0.22 0.22 0.20 0.25 0.24 0.23 0.25 0.24 0.24 0.24 0.28 0.27 0.24 0.25 0.27 0.24 0.20 0.27 0.25 0.21 0.21 0.25 0.28 0.28 0.27 0.26 0.23 0.24 0.25 0.25 0.24 0.23 0.23 0.22 0.21 0.22 0.20 0.20 0.21 0.20 0.19 0.23 0.26 0.25 0.26 0.28 0.30 0.31 0.29 0.30 0.30 0.30 0.30 0.30 0.30 0.30 0.31
0.31 0.34 0.31 0.22 0.16 0.20 0.22 0.20 0.19 0.18 0.16 0.19 0.17 0.20 0.19 0.19 0.19 0.22 0.22 0.25 0.22 0.20 0.22 0.20 0.22 0.22 0.24 0.23 0.23 0.23 0.26 0.26 0.26 0.26 0.27 0.26 0.22 0.28 0.24 0.24 0.28 0.23 0.23 0.22 0.24 0.25 0.24 0.20 0.23 0.20 0.16 0.15 0.19 0.21 0.23 0.26 0.26 0.24 0.23 0.25 0.26 0.24 0.21 0.21 0.20 0.22 0.21 0.19 0.21 0.21 0.19 0.18 0.22 0.26 0.27 0.29 0.29 0.28 0.27 0.28 0.29 0.29 0.29 0.30 0.29 0.29 0.30 0.29
0.36 0.39 0.37 0.29 0.17 0.22 0.19 0.21 0.21 0.18 0.16 0.21 0.22 0.23 0.21 0.22 0.24 0.24 0.21 0.26 0.26 0.26 0.26 0.25 0.25 0.24 0.24 0.24 0.24 0.26 0.29 0.30 0.30 0.30 0.30 0.30 0.30 0.29 0.29 0.28 0.27 0.23 0.22 0.21 0.24 0.20 0.21 0.19 0.18 0.18 0.14 0.12 0.18 0.17 0.17 0.18 0.19 0.16 0.16 0.20 0.22 0.24 0.25 0.25 0.25 0.25 0.24 0.24 0.22 0.19 0.19 0.21 0.23 0.25 0.25 0.27 0.29 0.29 0.29 0.28 0.27 0.28 0.30 0.30 0.29 0.27 0.27 0.28
Wind_Speed
14 14 14 14 14 14 14 14 14 14 14 14 14 14 13 13 13 13 13 12 12 12 12 13 13 13 14 14 15 15 15 15 16 16 16 16 16 17 17 16 16 16 16 15 15 15 15 15 15 14 14 15 15 15 15 16 15 15 14 14 15 15 15 15 14 14 13 14 15 14 13 12 14 15 16 15 15 16 15 15 15 15 14 14 14 13 14 13
13 13 13 13 13 13 13 13 13 13 13 13 13 12 12 12 12 12 11 11 11 11 11 12 12 12 13 13 14 14 14 14 15 15 16 16 15 16 16 16 15 15 15 14 14 14 14 14 14 13 13 14 14 14 14 15 15 14 13 14 15 15 15 14 14 13 13 14 15 14 14 12 13 14 15 16 16 15 14 14 14 13 13 13 13 13 13 13
13 13 12 12 12 12 12 12 12 13 13 12 12 12 11 11 11 10 10 10 10 10 10 11 11 12 12 12 13 13 13 13 13 13 14 14 15 15 16 16 15 14 14 13 14 13 13 13 13 13 13 13 13 14 13 14 14 14 13 14 15 15 14 14 14 15 15 14 14 14 14 12 12 13 13 14 15 15 15 14 14 14 14 14 14 13 13 13
12 12 11 11 11 11 11 11 11 12 12 11 11 11 10 10 9 9 9 9 9 9 9 10 10 11 11 11 11 11 11 11 10 11 11 11 12 14 14 15 14 14 13 13 12 12 12 12 12 12 12 12 13 13 13 14 14 13 13 14 15 13 13 14 14 15 15 14 14 14 13 11 11 11 12 12 12 14 16 16 16 15 15 14 14 14 14 14
11 11 11 10 10 10 10 10 11 11 11 10 10 10 9 9 9 9 9 9 9 9 9 9 9 10 10 10 10 9 9 8 9 10 10 10 10 12 13 13 13 13 12 12 11 11 11 11 11 11 11 12 12 12 13 14 13 13 13 14 14 12 13 14 13 13 14 13 13 13 11 11 10 11 12 12 12 13 15 16 16 16 15 14 14 14 14 14
10 10 10 10 10 10 10 10 10 10 10 10 9 9 9 8 8 8 8 8 8 8 8 8 9 9 9 9 8 8 7 7 8 9 9 9 9 10 11 12 12 12 12 11 11 10 11 11 10 10 10 11 12 12 13 13 12 12 12 13 13 13 13 13 12 12 12 11 11 11 11 11 9 10 13 13 12 13 13 14 14 15 15 15 14 14 14 14
9 9 9 9 9 9 9 9 9 9 9 9 9 8 8 8 8 8 8 8 8 8 8 8 8 8 8 8 7 7 7 7 8 8 7 7 8 10 10 11 11 11 11 11 10 10 10 10 10 11 10 11 11 12 12 11 11 11 11 11 12 13 14 14 13 13 12 12 13 11 11 11 10 11 13 13 13 13 13 13 14 14 14 14 14 14 14 14
8 8 8 9 9 9 9 9 9 9 9 9 8 8 8 8 8 8 8 7 7 7 7 8 7 7 7 6 6 6 6 7 7 7 6 5 6 8 9 10 10 11 11 11 10 10 10 10 10 10 10 11 11 11 11 11 10 11 11 11 11 12 14 14 14 13 12 12 13 11 10 10 11 11 12 14 14 13 13 13 13 14 14 15 15 15 15 14
8 8 8 8 8 8 8 8 8 8 8 8 8 8 8 8 8 7 7 7 7 7 7 7 7 7 6 5 5 5 5 6 6 5 5 4 5 7 8 9 10 10 10 10 10 10 10 10 10 10 11 11 11 11 11 10 11 12 12 12 12 13 14 14 13 12 11 11 10 10 9 9 10 10 12 14 14 13 12 13 14 14 15 15 15 15 15 14
8 8 8 8 8 8 8 8 8 8 8 8 8 7 7 7 7 7 7 7 7 7 7 7 7 6 6 5 4 4 5 5 5 4 4 4 4 5 7 8 9 9 10 10 10 10 10 10 10 10 10 10 10 11 10 10 11 11 12 12 13 14 14 13 12 11 10 10 10 10 10 9 9 10 12 13 13 13 12 13 14 15 16 16 15 15 15 14
8 8 8 8 7 7 7 7 7 7 7 7 7 7 7 7 7 7 7 7 7 7 7 6 6 6 6 5 4 5 5 4 4 3 3 3 4 5 5 6 8 9 9 10 11 10 9 10 9 8 9 10 10 10 10 11 10 10 10 11 12 12 12 11 11 10 9 9 10 11 10 10 10 10 12 13 13 13 13 14 15 15 15 15 15 14 14 14
8 8 8 8 7 7 7 7 7 7 7 7 7 7 7 6 6 7 7 7 7 7 6 6 5 5 5 5 5 6 5 4 3 3 3 3 4 5 5 6 7 8 9 9 10 11 10 10 9 9 10 10 9 9 10 10 10 10 9 9 11 9 9 10 10 10 9 10 10 10 10 11 12 12 12 12 13 13 13 14 15 15 15 15 15 15 14 14
8 8 8 8 8 7 7 7 7 7 7 7 7 7 7 7 6 6 6 6 6 6 6 6 5 5 5 5 6 6 5 4 4 3 4 4 5 5 6 7 7 8 8 8 9 9 10 10 10 10 10 10 10 9 9 9 9 9 8 8 9 8 8 9 9 10 10 11 10 10 12 13 13 14 13 12 13 13 13 14 15 15 15 15 16 15 15 15
8 8 8 8 8 8 8 7 7 8 8 8 8 8 8 7 6 6 6 6 6 6 6 5 5 5 5 5 6 6 6 5 4 4 5 5 5 6 6 7 7 7 8 8 8 8 8 10 9 10 10 10 10 10 9 8 8 9 8 8 8 8 10 11 10 10 11 12 10 10 13 14 14 14 13 12 14 14 14 15 15 15 15 16 17 16 16 16
8 8 8 8 7 8 8 8 8 8 8 8 9 8 8 7 7 6 5 5 6 6 5 5 5 5 5 6 5 6 6 5 5 6 6 6 6 6 7 7 7 8 7 8 8 7 7 8 8 9 10 10 9 9 9 9 8 8 7 8 8 7 10 11 10 10 12 13 11 10 13 14 14 15 14 13 13 14 15 15 15 15 16 17 18 17 17 16
9 8 8 8 8 8 8 8 8 9 9 9 9 9 9 8 7 6 6 6 5 5 5 5 5 5 5 5 5 5 5 6 6 6 7 7 7 7 7 7 7 7 8 8 8 8 7 7 8 8 9 9 8 8 8 8 8 8 7 8 8 7 8 9 9 10 11 13 13 12 14 14 14 15 14 12 12 13 13 14 15 15 15 17 18 17 17 16
9 9 9 9 8 8 8 8 9 9 9 9 10 9 8 7 6 6 6 5 5 5 5 6 5 5 6 6 5 5 5 6 7 7 7 8 8 8 7 7 7 7 8 8 8 8 8 8 8 8 8 8 8 8 8 9 9 9 7 7 8 8 8 9 10 10 10 12 13 14 15 16 16 15 14 12 12 12 13 13 14 14 15 16 18 18 17 17
9 9 9 9 9 9 9 9 9 9 9 9 9 8 7 6 6 6 6 6 6 6 6 6 6 5 6 6 5 6 6 7 7 7 7 8 8 8 7 7 8 8 7 8 8 8 9 9 8 8 8 8 8 7 9 11 10 9 9 8 8 8 9 10 11 10 9 10 12 13 15 16 16 15 14 13 13 13 14 13 13 14 15 16 17 18 18 17
10 10 10 9 9 9 9 9 9 9 9 9 8 7 6 6 6 6 6 7 7 7 6 7 6 6 7 7 7 7 7 6 6 7 7 8 8 8 8 8 8 8 8 9 9 8 9 8 8 8 9 10 10 9 11 12 11 10 10 8 8 9 10 11 12 12 10 9 10 12 14 15 15 16 15 14 13 14 15 13 12 13 15 16 17 18 18 18
10 10 10 10 10 10 9 9 9 9 9 9 8 7 7 7 7 7 8 8 8 8 8 8 8 8 8 8 7 7 7 6 6 7 7 8 8 8 9 9 9 9 9 10 10 9 8 8 9 11 11 11 11 10 10 11 10 9 9 8 9 10 11 12 12 12 11 10 11 12 13 15 15 16 16 14 13 14 15 15 14 14 14 16 17 18 18 18
9 10 10 10 10 10 9 9 9 9 9 8 7 7 7 7 7 8 9 9 9 9 9 9 8 9 9 8 8 7 7 7 7 7 7 8 8 8 9 9 9 10 11 11 11 10 8 9 12 13 13 12 11 10 9 9 9 9 9 9 10 11 11 13 12 12 11 11 12 12 12 14 15 15 15 14 14 14 16 16 15 15 15 16 17 18 18 18
9 10 10 9 9 9 9 9 8 8 8 7 7 6 7 7 7 8 8 8 10 9 9 9 8 9 10 9 9 8 7 7 8 8 8 7 7 8 8 7 8 10 11 10 10 10 10 11 13 13 12 10 9 9 9 9 9 10 10 10 11 12 12 13 13 13 12 12 13 12 12 14 15 15 15 14 15 16 16 16 16 16 16 16 17 18 19 18
10 10 9 9 9 9 8 8 8 8 7 7 7 6 7 8 8 8 7 8 9 8 8 8 8 9 9 8 8 7 7 8 9 9 9 8 8 8 7 6 7 9 9 9 10 10 11 12 13 11 10 9 10 10 9 10 11 11 11 11 12 12 12 13 14 14 13 12 13 12 13 15 15 14 15 15 15 15 16 17 16 16 17 18 18 19 19 20
10 10 10 10 9 8 8 8 8 7 7 7 7 7 8 8 8 7 7 7 8 8 8 8 7 8 8 8 7 6 6 8 8 9 9 8 8 8 8 7 7 9 10 9 9 10 12 13 11 10 10 11 11 11 10 11 12 13 12 12 12 13 13 13 14 14 14 13 13 12 13 15 14 14 15 15 14 14 15 16 16 16 17 18 19 19 21 22
11 10 10 10 9 9 9 8 7 7 7 7 7 8 8 9 9 7 6 6 6 7 7 6 6 7 7 7 7 7 6 7 8 8 8 8 8 8 8 8 7 9 11 9 8 10 13 13 11 10 10 11 11 12 12 12 12 13 14 14 13 13 13 14 14 13 13 14 14 13 14 16 15 14 16 15 14 15 15 15 16 17 17 19 20 20 22 22
11 11 10 10 10 10 9 8 8 7 7 7 8 9 9 9 8 6 5 4 5 6 5 5 5 6 6 6 7 7 5 6 8 8 7 7 8 7 7 7 7 9 10 9 9 11 12 12 10 10 10 10 11 13 13 12 11 13 14 13 12 12 12 13 13 12 13 15 15 13 14 16 15 15 16 15 15 17 17 17 18 18 18 20 21 22 22 23
11 11 10 10 10 10 9 8 8 8 7 8 9 9 9 9 7 6 5 4 5 6 6 6 6 5 6 6 6 5 5 7 7 6 7 7 8 7 7 8 7 8 8 8 10 11 12 12 10 10 10 10 11 13 13 12 11 13 14 12 11 12 12 13 12 13 14 15 15 14 14 16 17 17 17 16 16 18 19 19 20 20 20 21 22 23 23 23
11 10 10 10 10 9 9 9 9 8 8 9 9 9 9 7 6 5 4 4 6 7 6 6 6 6 6 6 6 5 5 6 5 6 7 7 7 6 7 8 7 8 8 8 11 12 12 13 13 11 10 10 12 12 13 11 11 14 13 11 12 12 13 13 12 13 14 14 15 15 14 15 17 17 16 15 16 17 19 20 20 21 21 22 23 24 25 25
11 10 10 10 9 9 9 9 9 9 9 9 9 9 8 6 5 4 3 4 6 6 6 6 6 6 6 5 6 6 6 5 5 7 6 6 7 6 7 8 7 8 9 8 11 12 12 13 14 12 11 12 13 12 12 11 12 13 11 10 11 12 12 12 12 13 13 13 15 16 14 14 16 17 15 13 14 16 17 18 18 19 21 21 22 23 23 23
11 10 10 9 9 9 9 9 9 9 9 10 9 8 6 5 4 3 4 5 5 5 5 5 5 6 5 5 6 6 6 6 6 7 6 6 7 7 7 8 7 7 10 10 11 12 11 12 13 12 13 13 11 11 11 11 11 11 10 10 11 12 12 12 12 12 11 13 15 16 13 12 14 15 13 12 12 14 15 16 16 17 18 18 18 18 19 19
11 10 10 9 9 9 9 9 9 9 9 9 8 7 5 5 4 3 5 6 5 5 4 5 5 4 3 4 5 5 5 6 6 6 6 7 7 7 7 8 8 8 10 10 10 11 10 10 12 12 12 11 9 10 11 11 11 11 11 11 11 12 12 11 12 11 11 13 14 13 11 11 12 13 13 13 13 14 14 14 15 15 16 16 14 14 15 16
11 10 9 8 8 8 8 9 9 9 9 8 8 6 5 5 5 4 5 6 5 5 5 5 5 4 3 4 4 5 5 5 6 5 6 7 7 8 8 8 9 9 10 10 9 10 10 10 11 11 11 10 9 10 11 11 11 11 12 11 11 11 11 11 12 11 12 13 13 11 10 11 13 14 14 14 14 13 13 13 14 14 15 14 12 11 12 12
11 10 9 8 8 8 8 8 8 8 8 8 7 6 5 5 6 6 6 5 5 6 5 5 5 4 3 3 4 5 5 5 6 6 6 7 7 9 9 9 9 9 10 10 10 11 11 11 10 9 11 11 10 11 12 12 12 12 12 12 11 10 10 12 12 11 12 13 12 11 11 12 13 13 13 14 15 14 13 13 14 14 15 13 10 10 9 9
11 9 9 9 9 9 9 9 8 8 8 8 7 7 6 7 8 7 7 7 6 6 6 6 6 5 4 3 5 6 4 5 6 6 7 7 8 9 9 9 9 9 9 10 11 10 9 10 10 8 9 10 10 11 11 11 12 12 12 12 12 11 11 12 12 11 12 11 11 11 11 11 11 12 13 14 14 13 12 13 13 13 14 12 8 8 8 8
10 9 9 10 9 10 10 9 9 8 8 8 7 7 8 9 9 8 8 8 7 7 7 6 6 5 5 6 7 6 5 6 7 7 7 7 8 9 9 9 10 8 8 10 10 9 9 11 11 10 10 9 10 10 9 10 11 12 12 11 13 13 12 12 12 11 12 11 11 12 12 12 12 12 13 12 13 13 13 13 12 12 12 10 8 8 7 7
10 9 10 10 10 10 9 10 10 9 8 8 7 8 10 10 9 9 9 8 7 7 8 7 6 6 7 8 8 7 7 8 8 8 8 8 8 9 8 9 10 8 8 9 10 9 9 11 11 10 10 10 10 11 10 11 12 12 12 13 14 13 11 11 12 11 10 11 13 13 12 13 12 11 12 11 12 13 13 12 12 12 11 9 9 9 8 7
11 10 10 10 10 10 9 10 10 10 9 8 8 10 11 10 10 10 9 9 9 8 7 8 8 8 9 9 9 10 9 9 9 9 9 9 9 9 9 10 10 9 9 10 11 11 11 13 13 11 11 12 12 11 11 11 11 11 13 14 13 12 11 11 11 11 10 12 13 13 12 13 11 11 12 12 11 12 13 13 12 11 11 10 10 10 9 9
11 11 10 10 10 10 10 10 9 10 10 9 10 11 11 10 11 10 10 10 10 9 8 9 9 9 9 10 11 12 11 11 11 11 11 10 10 10 10 10 11 11 11 10 11 12 12 14 15 13 12 14 13 11 12 12 12 12 14 14 12 12 13 12 12 11 11 12 13 13 13 13 13 14 13 12 12 12 13 13 11 11 11 10 9 9 9 9
12 11 10 10 10 10 10 10 10 10 10 10 11 12 11 11 11 11 10 11 10 9 10 11 11 10 11 11 12 13 12 11 12 12 11 11 11 11 11 12 13 13 12 11 11 13 12 13 14 14 13 14 13 12 13 14 14 13 13 14 13 13 13 13 13 12 12 13 13 13 13 13 14 15 13 13 14 14 12 12 12 12 11 10 8 8 7 7
13 12 12 12 11 11 11 11 11 10 10 11 12 12 12 12 12 12 11 11 11 11 11 12 11 12 12 13 13 13 13 12 12 12 13 12 12 13 13 14 14 15 14 13 12 13 13 13 15 16 15 14 14 14 15 15 14 14 14 15 14 14 13 14 14 13 13 13 13 13 14 15 15 14 14 14 15 14 13 13 13 13 12 10 9 8 8 8
13 13 13 13 13 13 12 11 11 11 11 12 12 13 13 13 13 13 12 12 12 13 13 12 12 13 13 14 14 14 14 13 13 13 14 14 14 14 14 15 16 17 16 15 15 15 15 15 16 17 16 15 16 16 15 15 15 15 15 16 15 15 14 14 15 15 14 14 14 14 15 16 16 15 16 16 16 15 15 14 14 14 13 12 12 11 10 10
13 14 15 14 14 14 12 12 12 12 12 13 13 14 14 14 14 14 14 13 13 14 13 13 14 14 14 15 15 15 14 15 15 14 15 15 14 15 16 17 18 18 16 17 18 17 16 16 16 18 18 18 18 18 16 16 16 15 16 16 16 16 16 16 16 17 17 17 16 15 16 18 18 17 17 18 17 16 15 14 14 14 14 14 13 13 12 11
14 16 16 16 15 14 13 14 14 13 13 14 15 15 15 15 15 15 15 15 15 15 15 15 15 15 16 16 16 16 16 16 16 16 16 15 15 16 18 18 18 17 17 17 18 17 17 17 17 19 19 19 19 18 17 17 16 16 17 17 17 18 18 18 18 18 18 18 17 16 18 20 20 19 18 18 18 16 15 15 15 15 15 15 15 14 14 14
16 17 17 16 16 15 15 16 15 15 15 15 15 16 16 16 16 16 17 17 17 17 16 17 17 17 17 17 16 17 17 17 17 17 16 16 17 18 18 18 18 17 17 18 18 18 18 17 17 17 18 19 19 18 18 18 17 18 19 18 18 17 17 18 19 18 19 20 19 19 20 21 21 20 20 20 19 18 17 17 16 17 18 18 18 17 17 17
16 16 17 16 16 15 16 16 16 16 16 16 16 17 17 17 18 17 17 18 18 18 17 18 18 18 18 17 17 18 18 18 18 18 17 17 18 19 19 19 18 18 19 19 19 19 19 18 18 17 18 18 19 19 19 19 19 19 19 20 19 18 18 19 20 19 20 22 21 21 22 22 23 23 23 23 22 20 19 19 18 19 19 20 19 19 19 19
14 15 16 16 15 14 15 16 16 16 17 17 17 18 18 18 19 18 18 18 18 18 18 19 19 18 18 18 18 19 19 19 19 18 18 19 19 19 20 20 19 19 19 18 18 18 18 19 19 19 20 21 21 21 20 19 20 21 21 22 22 20 20 20 20 21 22 22 23 25 23 22 24 26 26 25 24 23 22 21 21 21 21 21 21 21 21 21
14 14 15 15 15 14 15 16 16 16 18 17 18 18 18 18 19 19 18 18 19 18 18 19 19 19 19 19 19 20 20 20 20 19 19 20 20 20 21 20 19 19 19 18 19 18 18 20 21 20 22 22 22 22 21 20 22 23 22 23 24 22 21 21 23 24 23 22 26 27 24 24 26 26 26 26 26 25 25 24 24 23 23 23 23 23 23 23
13 14 14 15 15 15 15 16 16 16 17 17 18 18 18 18 19 19 19 19 18 18 18 19 19 19 20 20 19 20 20 20 21 20 20 20 20 20 20 19 19 19 18 18 19 18 18 21 21 20 22 23 22 23 22 21 23 23 22 24 25 24 23 24 26 25 23 25 28 27 25 26 27 25 26 27 27 26 26 26 25 25 24 24 24 25 25 25
13 14 15 15 16 16 17 17 17 16 16 17 18 18 18 18 19 20 20 19 19 19 18 19 20 20 19 19 19 19 20 20 21 21 20 20 21 21 20 20 21 20 19 19 20 19 19 21 21 21 23 23 23 23 22 22 23 24 24 25 25 25 25 26 26 26 25 27 29 26 26 28 27 26 27 27 26 27 27 27 26 26 26 26 26 26 26 26
13 14 15 15 15 16 17 17 17 17 17 18 18 18 18 18 19 20 20 19 20 21 19 19 21 22 20 19 19 20 21 20 20 21 21 20 21 21 21 22 22 21 21 21 21 21 21 22 22 22 24 25 24 23 23 23 24 25 26 26 24 25 26 26 26 25 25 28 28 27 28 30 28 26 26 25 25 26 26 27 27 27 27 27 27 27 27 27
14 15 15 15 16 17 17 17 17 16 17 18 18 18 18 18 19 19 20 19 19 20 21 21 21 21 20 19 19 21 22 21 21 22 21 21 22 22 22 22 22 22 22 22 22 22 22 23 23 22 25 26 24 24 26 25 26 28 29 26 25 26 26 26 26 25 25 27 27 27 29 29 27 25 25 25 24 25 26 27 27 27 26 26 26 27 27 27
14 15 15 15 16 16 16 17 17 16 17 18 18 19 19 19 19 19 19 19 18 19 20 21 21 20 20 20 20 22 24 23 23 24 23 23 24 24 24 23 22 22 22 21 22 22 22 23 23 22 24 25 23 24 26 25 26 29 29 26 27 28 28 27 27 26 26 26 26 27 28 27 25 24 24 24 25 25 26 26 26 26 26 26 26 26 27 28
Wind_Direction
290 291 291 291 291 293 294 294 295 296 296 293 291 289 287 285 281 279 277 275 275 275 275 275 274 274 274 274 274 274 274 271 268 264 259 256 253 249 245 243 240 238 239 241 241 242 245 243 240 240 238 239 243 242 242 242 241 244 244 245 247 245 246 242 239 246 252 258 259 264 267 250 247 245 235 234 227 223 232 239 238 243 248 240 237 227 218 225
291 291 292 292 293 294 295 296 297 297 296 295 293 290 288 285 281 278 276 275 274 274 274 274 275 274 274 275 275 276 275 271 268 264 259 257 252 247 241 237 236 235 236 238 238 238 240 240 239 239 237 239 242 241 241 241 239 241 242 245 245 243 243 238 237 249 253 259 262 261 261 249 244 244 236 231 229 227 233 241 240 238 238 236 232 222 217 222
292 291 292 293 294 296 297 298 299 299 298 297 295 291 288 285 281 277 276 274 273 274 275 275 275 276 276 276 276 278 276 271 266 261 259 258 251 243 237 233 233 234 234 236 235 233 234 235 235 235 236 238 240 240 241 241 240 241 242 245 246 242 243 239 239 250 254 260 263 260 257 246 240 243 236 227 229 231 231 233 233 230 230 230 226 219 217 219
293 292 292 294 295 297 298 300 301 301 301 298 296 293 288 285 281 278 277 275 274 275 276 277 278 279 279 278 279 278 274 269 262 258 260 261 249 237 232 230 231 231 231 231 231 231 232 232 233 234 235 238 241 241 240 240 240 242 240 241 243 240 241 241 242 251 257 259 257 256 254 242 239 240 228 217 224 237 234 228 228 226 223 221 219 218 217 218
293 292 292 294 295 297 299 301 302 304 303 300 297 294 290 286 283 280 278 275 275 276 277 279 280 282 282 282 281 274 271 267 260 261 263 261 245 230 228 227 227 228 227 226 228 230 232 231 232 235 236 238 240 240 241 240 239 242 242 239 240 237 238 244 246 251 255 259 258 255 247 236 240 236 219 215 222 233 235 230 227 221 216 214 214 216 219 223
293 292 292 294 295 296 299 301 304 306 304 301 299 295 291 288 285 282 278 275 274 275 277 279 282 284 286 286 278 268 265 265 265 265 264 260 239 226 225 224 223 224 224 224 226 229 230 230 230 233 235 238 237 237 241 242 239 242 246 243 242 236 235 245 247 246 252 259 256 253 249 236 235 233 224 226 229 234 239 230 224 221 218 215 213 216 222 227
293 292 292 294 295 296 299 302 304 307 305 301 298 295 292 289 286 283 279 275 273 274 276 278 282 285 290 286 273 268 266 265 271 270 265 255 234 223 221 222 221 222 223 221 223 225 226 225 227 228 231 237 236 235 240 242 237 237 243 244 245 237 234 244 249 249 251 254 252 254 254 236 225 231 232 236 237 242 245 230 222 223 220 217 217 220 224 226
293 292 293 294 295 296 299 302 305 308 307 303 298 294 291 288 284 282 279 275 273 274 275 277 281 285 289 283 273 277 271 266 276 275 262 248 232 221 218 222 221 221 220 218 218 219 221 221 226 229 231 236 232 234 239 240 240 235 235 242 244 237 238 247 252 251 249 248 249 249 250 239 232 235 232 236 242 245 240 228 224 222 220 221 220 222 224 226
293 292 293 295 296 298 299 302 305 308 310 308 302 296 291 286 282 280 278 275 273 274 275 277 281 283 282 276 275 279 268 271 283 274 253 242 235 222 220 223 219 217 215 215 215 214 220 223 229 232 232 235 231 235 239 235 239 234 233 245 246 241 246 252 250 248 244 242 240 236 243 243 240 240 235 239 244 242 234 226 224 221 221 222 223 225 228 230
292 292 293 295 297 300 301 302 304 307 311 312 309 303 295 288 281 278 276 273 273 273 274 277 280 281 274 269 274 271 265 280 289 266 238 230 225 217 217 217 211 210 208 210 210 211 220 223 229 233 230 232 229 234 234 227 233 234 239 249 247 246 250 249 246 245 239 237 232 229 238 244 246 244 241 245 243 236 230 226 225 223 223 224 227 230 231 233
291 292 292 295 298 301 302 303 305 307 310 312 312 309 303 293 283 279 276 273 271 271 272 274 278 277 268 268 267 261 267 281 283 253 224 219 214 208 208 205 202 201 201 205 211 217 223 224 230 234 230 231 231 234 231 229 237 242 248 255 255 253 249 244 244 243 236 236 234 230 239 251 254 248 246 247 238 231 227 226 228 225 225 225 226 228 231 233
292 291 291 293 297 300 302 304 305 306 309 312 313 311 308 301 289 282 278 274 270 268 270 270 273 269 265 271 259 254 265 269 263 241 218 218 217 211 203 199 198 199 201 207 219 226 229 231 234 236 234 232 233 234 234 237 241 245 247 252 261 260 249 248 244 241 235 238 241 236 247 257 254 251 253 246 234 232 229 227 229 227 228 227 225 227 230 232
295 293 292 291 293 297 300 303 305 306 307 310 311 310 308 303 296 287 281 276 268 266 267 266 266 261 263 270 258 252 259 253 246 237 225 225 227 221 208 203 205 208 212 216 225 232 235 235 234 236 237 231 232 234 237 242 240 245 245 242 257 257 250 251 245 244 239 241 248 244 250 255 256 259 257 246 234 232 233 231 232 231 231 227 225 228 230 231
296 295 294 293 293 294 297 300 303 304 305 306 307 307 303 299 295 289 283 277 269 264 261 261 261 256 257 259 253 254 257 248 241 238 233 228 227 230 220 210 211 215 223 231 235 240 241 237 235 239 237 230 234 239 243 247 241 246 245 241 249 242 246 252 246 246 243 247 254 249 252 254 258 263 255 245 238 232 233 234 233 233 231 227 226 228 231 233
295 294 294 295 295 295 296 297 299 299 302 304 305 304 299 293 289 284 279 275 270 263 258 258 257 256 262 258 250 253 252 248 247 243 238 229 224 230 225 216 218 220 228 240 241 243 243 235 235 239 238 237 241 243 245 246 244 247 244 246 250 238 246 252 247 247 244 251 257 249 254 256 258 262 254 245 241 234 232 233 233 233 230 226 227 228 231 235
293 293 293 293 295 296 296 296 297 297 299 302 303 301 295 289 282 277 273 271 268 262 256 256 253 252 257 254 250 253 249 248 252 247 238 231 226 226 225 226 228 226 233 243 241 240 241 233 235 241 242 244 242 241 245 247 250 251 242 242 247 243 246 248 250 255 249 253 258 251 251 255 261 266 259 250 244 236 233 234 234 234 231 227 228 230 233 235
290 291 291 292 293 295 296 296 296 297 299 302 302 299 294 288 278 273 271 269 266 262 258 254 253 254 252 250 251 256 259 257 255 247 237 234 232 229 232 235 235 237 242 243 236 234 234 232 239 247 248 247 242 240 245 248 249 251 247 241 244 242 241 247 251 256 258 256 257 255 250 250 259 267 265 258 249 240 238 238 237 236 235 232 231 232 235 235
288 288 289 291 292 293 295 295 295 298 301 303 304 297 292 287 277 274 272 268 266 264 262 254 250 252 250 249 252 259 270 268 258 247 237 237 236 235 240 241 244 253 252 242 237 235 237 241 245 251 256 257 250 241 239 239 237 241 244 240 245 246 242 249 252 253 262 260 256 258 254 252 259 264 265 261 252 244 243 243 242 242 241 238 235 234 235 235
288 287 288 290 291 292 293 293 295 298 301 305 304 293 288 290 281 274 273 272 266 261 259 251 246 247 247 251 258 266 272 266 254 245 238 237 236 238 243 246 250 255 250 244 246 245 243 248 253 253 257 256 248 238 234 234 230 232 239 237 241 248 251 254 256 259 260 258 258 257 253 254 257 259 259 259 254 247 248 249 248 249 246 242 238 236 236 236
289 288 289 289 290 290 290 291 293 296 301 303 298 289 288 294 286 277 279 274 260 254 256 250 246 252 255 257 263 271 274 262 248 244 241 238 234 238 247 250 251 253 249 244 247 250 246 248 251 247 248 247 243 239 235 235 233 233 238 240 242 249 258 261 262 266 262 255 257 254 252 254 252 253 253 252 254 254 254 253 251 251 249 243 238 237 237 238
291 290 289 290 289 289 288 288 291 295 299 297 292 285 284 289 285 281 282 274 262 255 256 252 246 251 257 258 262 271 274 265 255 249 244 240 234 240 252 252 248 251 252 245 246 253 251 249 250 245 243 242 240 237 235 237 240 241 238 240 248 250 256 261 262 267 266 258 258 259 260 257 253 255 253 246 249 253 252 251 250 249 248 245 241 239 239 240
292 291 291 290 289 288 286 286 289 292 293 290 287 283 282 287 285 281 278 272 269 259 251 252 249 253 259 260 260 262 262 262 263 257 244 238 239 244 251 252 243 246 254 252 252 260 257 252 251 247 242 241 242 239 237 240 242 246 245 245 254 256 261 266 264 268 268 259 260 264 263 260 258 259 258 251 249 252 251 249 249 248 247 245 243 241 241 242
291 290 290 290 289 288 286 286 288 289 286 282 282 281 285 291 289 285 277 269 270 262 249 248 247 252 260 261 256 253 251 252 256 256 244 235 243 244 245 251 247 248 255 252 246 253 253 248 247 245 238 239 248 248 242 245 248 248 247 249 256 261 264 264 265 270 270 262 259 262 263 262 262 262 260 257 255 255 256 254 254 252 248 247 246 243 241 242
290 289 288 287 287 285 286 287 288 286 281 277 278 281 287 294 292 287 278 268 266 260 246 240 241 246 254 258 252 247 253 250 247 252 245 235 242 247 248 250 251 252 254 247 240 245 249 246 244 244 244 244 248 251 245 245 253 254 249 248 254 259 259 258 265 271 271 268 264 264 268 265 263 263 260 260 262 261 260 260 260 257 254 253 251 247 244 243
289 287 284 283 282 282 285 285 285 285 279 274 279 284 290 295 292 283 274 268 263 256 244 235 240 245 247 254 250 247 259 257 247 248 247 238 238 248 255 254 254 256 254 249 247 250 252 252 246 245 253 252 248 252 249 242 251 259 255 248 249 254 257 261 269 273 271 271 268 265 263 263 264 263 258 260 266 266 265 265 260 256 256 256 254 250 248 248
288 285 283 280 278 278 281 280 280 282 278 275 282 289 293 294 289 272 259 261 252 248 243 238 244 249 248 252 250 249 265 265 251 246 247 243 240 245 255 259 263 261 254 252 256 254 253 257 253 247 251 254 253 256 252 243 246 257 255 249 250 255 258 262 266 267 266 265 267 264 256 259 265 262 259 263 268 268 268 267 264 260 257 255 255 254 252 250
289 285 282 279 277 276 274 274 275 276 275 277 284 291 293 292 282 257 252 263 252 246 246 245 246 250 249 250 246 241 257 266 257 250 247 244 247 251 254 260 269 267 261 264 267 260 252 258 261 254 253 256 256 258 253 242 243 254 253 247 251 256 258 260 262 264 265 265 270 270 259 260 265 261 262 267 268 270 270 269 269 267 261 258 258 258 255 252
291 286 283 280 278 274 270 270 272 271 271 278 286 290 290 286 269 248 245 251 250 246 244 246 246 249 253 252 244 241 257 267 260 259 255 244 248 257 260 259 258 265 271 268 268 267 257 255 257 254 257 258 254 252 246 239 248 256 252 249 255 258 259 262 265 266 268 268 270 272 266 264 265 265 267 268 267 269 270 269 270 271 270 267 264 262 259 255
291 286 283 279 277 273 269 269 268 267 271 279 285 285 283 276 260 252 245 242 248 247 244 247 249 254 259 256 253 255 265 268 257 259 261 248 250 261 265 260 255 265 276 271 266 271 265 256 253 250 254 256 253 250 242 240 253 255 250 258 267 269 269 270 267 265 268 267 264 267 266 263 267 270 269 268 268 268 269 270 270 272 276 274 270 266 261 256
291 284 280 276 274 271 269 270 266 265 273 279 281 279 274 267 257 253 247 241 245 249 246 245 248 257 262 258 264 266 260 265 266 266 266 260 264 271 267 266 269 271 279 282 274 273 275 266 256 251 251 250 248 252 250 249 253 252 256 267 272 275 274 271 267 261 265 268 264 264 263 260 268 270 263 264 268 268 269 273 273 275 278 274 269 267 262 255
290 283 278 274 272 270 268 268 265 265 272 276 277 272 262 258 252 234 238 239 241 250 249 243 246 262 268 251 259 268 264 273 281 276 272 272 277 280 273 274 281 283 286 289 283 283 288 277 262 256 253 248 250 257 259 259 256 254 260 264 266 272 274 271 269 263 261 266 267 267 263 260 265 265 262 268 271 271 272 272 274 277 278 274 270 270 267 255
290 283 275 269 271 271 266 264 264 265 270 273 271 259 246 251 249 235 241 246 243 242 240 240 244 258 273 260 259 271 271 278 285 279 270 273 275 274 271 269 272 282 286 282 285 293 289 276 270 267 257 248 250 259 264 266 263 258 259 260 262 270 274 270 268 264 261 263 267 267 263 263 264 260 263 272 277 279 276 273 274 276 277 279 276 274 273 259
291 281 271 265 268 272 269 266 266 265 267 268 260 249 241 243 240 235 241 245 239 238 235 238 249 258 268 269 268 275 276 274 282 283 276 278 280 277 278 276 271 275 278 275 284 294 290 286 284 272 261 253 247 252 259 261 259 253 252 254 256 263 269 267 266 267 267 267 267 265 264 268 267 263 266 273 278 280 280 278 278 276 277 282 281 274 272 262
290 277 268 266 268 269 268 270 270 266 266 263 249 244 243 240 237 235 242 244 244 251 247 246 260 269 270 263 264 276 279 274 283 291 289 291 289 284 285 287 281 276 275 276 280 282 281 285 282 266 264 263 254 251 252 254 256 255 251 251 253 254 257 261 260 260 263 265 265 263 263 263 261 264 270 271 273 276 278 277 278 278 278 282 287 281 274 266
286 275 270 269 270 269 266 267 268 266 265 260 248 244 241 240 241 238 241 246 248 256 259 258 260 263 269 268 268 275 272 273 287 297 296 294 286 280 281 284 284 278 274 276 278 277 274 275 275 273 270 267 264 261 255 254 259 259 255 254 256 253 253 260 260 257 258 262 262 260 260 260 260 267 270 268 269 271 273 277 281 283 283 286 292 288 282 273
279 275 274 270 270 271 267 264 265 265 262 256 250 248 241 239 240 235 239 246 246 250 261 267 262 256 265 267 268 278 280 280 290 295 292 291 284 279 279 280 281 278 271 271 274 277 277 276 279 282 278 274 271 266 260 258 258 259 257 253 254 253 251 256 262 267 266 262 262 260 259 263 264 265 268 268 270 271 274 280 283 285 289 293 290 284 283 280
275 273 273 270 270 271 266 262 263 263 260 253 246 246 243 240 239 236 243 251 250 250 256 262 261 257 262 265 267 277 284 285 290 291 289 290 286 284 286 283 281 280 277 275 275 274 273 275 278 277 275 277 275 269 269 266 259 257 258 255 256 259 258 256 261 272 271 262 264 262 255 256 255 256 264 267 267 271 274 276 279 283 289 292 287 281 279 277
274 270 267 269 271 270 265 262 263 262 259 253 249 247 244 243 243 243 249 253 251 254 256 257 260 258 259 264 269 276 282 285 287 289 288 286 284 285 288 284 283 287 285 279 280 280 276 277 278 274 269 275 277 269 269 272 266 259 258 259 260 260 260 258 257 262 263 262 268 268 259 254 251 254 257 255 257 266 271 270 272 278 284 284 282 279 275 273
272 267 263 267 272 270 265 263 263 262 258 253 249 247 244 244 247 250 255 255 251 255 258 257 261 264 261 263 269 275 281 281 282 286 286 282 281 284 288 283 283 290 290 281 281 284 283 279 278 276 270 270 273 267 262 266 269 267 265 265 264 259 256 256 256 256 258 260 265 269 267 260 253 251 247 245 252 260 264 267 268 273 278 278 274 271 268 268
268 263 260 266 272 268 263 264 263 259 256 251 245 245 246 246 251 256 260 259 255 257 260 259 262 267 267 267 270 275 279 278 277 281 282 280 280 282 286 284 282 286 289 286 284 286 285 279 275 277 276 269 266 264 259 257 260 263 264 262 261 260 257 258 259 258 257 258 259 263 267 263 255 247 242 244 252 256 258 263 267 271 275 273 268 266 264 262
266 263 260 266 272 267 263 265 263 257 253 251 248 249 251 250 252 259 263 262 259 259 260 259 260 264 267 269 272 274 277 278 278 279 279 279 279 278 283 285 280 281 286 287 287 285 283 280 275 276 277 270 265 265 261 257 255 256 258 258 256 256 255 258 261 261 259 258 256 257 263 262 254 246 245 249 254 259 261 260 263 269 270 268 266 265 264 261
265 262 261 267 272 266 262 263 262 258 252 250 251 252 255 255 255 258 263 265 265 264 265 264 264 265 267 269 271 271 274 276 277 277 277 277 277 276 283 288 283 279 282 282 281 280 278 278 276 274 272 267 266 267 264 261 259 258 260 262 260 258 256 253 256 259 259 259 258 259 263 261 255 250 251 256 259 261 263 259 258 262 263 263 263 262 260 258
265 264 264 268 270 264 261 263 264 263 257 255 255 254 255 257 257 259 263 265 266 267 269 269 267 268 269 270 271 270 272 274 274 275 276 276 277 277 284 291 287 282 283 282 280 279 278 277 276 275 273 272 271 271 268 266 264 262 264 264 261 260 259 255 255 257 256 255 257 263 266 262 258 257 259 261 260 257 259 260 259 261 262 261 262 260 259 259
267 265 264 269 270 263 259 259 259 260 260 261 261 259 258 257 258 261 263 265 267 266 268 270 269 269 271 272 272 271 272 274 275 277 277 277 277 279 287 294 290 285 284 281 279 278 278 276 274 276 277 275 274 273 271 270 266 262 263 263 260 259 259 259 260 261 260 258 255 259 264 263 261 263 264 265 264 259 258 259 260 262 263 262 261 261 261 262
269 265 263 269 271 262 257 257 255 256 259 261 262 261 262 261 261 263 263 265 268 266 267 270 270 271 272 273 274 275 275 275 276 279 280 280 279 280 287 292 290 286 285 285 283 279 275 273 271 269 268 267 267 267 267 267 265 263 263 263 262 260 258 260 262 261 261 262 258 257 264 266 265 266 266 267 267 263 260 260 260 260 262 262 262 262 263 264
268 266 266 269 270 264 259 260 260 257 258 259 260 261 262 262 265 267 265 266 269 269 269 271 272 272 273 273 273 275 277 277 278 278 279 279 277 278 283 286 287 287 287 291 290 280 275 274 269 264 262 262 263 264 264 264 264 264 264 263 264 263 260 260 260 259 259 262 261 259 261 266 266 265 264 264 264 262 262 263 262 261 261 261 262 263 264 265
267 265 266 266 268 266 263 266 266 262 259 258 259 262 263 264 267 269 269 268 269 271 271 271 272 270 269 270 271 272 275 277 278 277 276 277 276 278 281 281 283 288 288 289 289 281 276 276 271 266 265 265 265 267 268 267 265 262 261 261 262 263 261 259 259 260 260 262 264 262 261 263 264 262 260 261 262 262 263 264 264 262 261 260 261 264 266 266
269 266 265 264 264 263 263 266 267 265 263 261 260 263 266 268 269 269 270 271 271 271 270 270 273 272 269 269 269 271 274 276 277 276 276 277 278 280 283 280 280 286 286 285 285 279 274 274 271 269 269 269 268 269 268 268 266 264 260 259 260 260 259 257 258 259 258 259 264 265 262 263 264 262 260 260 260 261 261 262 263 263 261 261 263 265 265 266
271 268 268 268 265 261 263 266 265 263 265 265 264 265 266 268 269 268 268 270 272 272 270 268 271 273 272 270 269 271 272 272 276 277 275 277 279 279 281 279 278 283 285 283 281 277 273 273 271 270 272 272 270 269 268 266 267 268 265 262 262 261 260 260 261 261 259 260 265 266 263 264 265 263 261 261 260 260 262 263 263 263 263 263 263 264 264 265
272 270 270 270 267 267 268 269 266 264 266 268 266 266 266 266 269 269 267 268 269 271 271 269 268 271 274 272 270 271 270 268 273 276 273 276 280 279 279 278 277 281 284 281 278 277 275 273 272 272 273 272 270 270 269 266 266 268 267 265 265 265 264 264 264 263 262 264 266 266 265 267 267 265 263 263 262 262 262 262 262 262 262 262 262 262 263 264
274 271 271 269 268 270 270 269 267 266 268 269 267 266 267 267 268 268 267 267 267 268 270 270 267 269 274 274 272 274 274 269 269 272 270 273 277 277 278 278 276 279 282 278 276 276 274 273 275 275 274 272 270 269 270 270 270 269 267 265 264 264 264 263 262 261 260 263 266 266 266 268 267 264 262 262 262 262 261 261 261 261 260 259 260 261 263 264
281 276 274 269 267 271 270 268 269 267 266 268 268 268 268 269 271 268 266 268 271 272 272 270 267 269 273 275 274 277 278 274 272 273 272 273 277 278 278 279 277 278 279 276 275 275 272 272 274 272 272 273 271 269 271 274 274 271 268 265 262 262 263 263 263 261 259 261 263 264 266 267 265 261 260 260 261 261 261 260 260 260 259 259 260 263 264 266